Location: Axtheid
(49.6213°N, 11.8205°E)
Time: 20:11:18
(UTC+00:00)

BREEZE-M DEB (TANK) - Pass Details

Date: 18 February 2020
Orbit: 324 x 11711 km, 49.7° (Epoch: 28 March)

Event Time Altitude Azimuth Distance (km) Brightness Sun altitude
Exits shadow 03:57:43 54° 206° (SSW) 851 4.0 -23.3°
Maximum altitude 03:58:30 66° 155° (SSE) 852 4.2 -23.2°
Drops below altitude 10° 04:07:50 10° 75° (ENE) 4,603 9.1 -21.7°
Sets 04:14:24 0° 75° (ENE) 7,209 10.5 -20.7°
